This is the latest recevied weather packets stored in our database for station/object EA1IOK-1. If no packets are shown the sender has not sent any weather packets the latest 10 day(s).
| Time | Temp. | Humidity | Pressure | Rain* | Wind** | Luminosity | Snow |
|---|---|---|---|---|---|---|---|
| 1777555218 | 19.44° C | 100% | 1015.2 hPa | - | - | - | - |
| 1777554318 | 20° C | 100% | 1015.1 hPa | - | - | - | - |
| 1777553417 | 20° C | 100% | 1015.1 hPa | - | - | - | - |
| 1777552516 | 21.67° C | 100% | 1015.2 hPa | - | - | - | - |
| 1777551616 | 20° C | 100% | 1015.2 hPa | - | - | - | - |
| 1777550715 | 18.33° C | 100% | 1015.2 hPa | - | - | - | - |
| 1777549815 | 20° C | 100% | 1015.1 hPa | - | - | - | - |
| 1777548914 | 19.44° C | 100% | 1015.2 hPa | - | - | - | - |
| 1777548013 | 20° C | 100% | 1015.1 hPa | - | - | - | - |
| 1777547113 | 20.56° C | 100% | 1015.3 hPa | - | - | - | - |
| 1777546212 | 20° C | 100% | 1015.2 hPa | - | - | - | - |
| 1777545310 | 17.22° C | 100% | 1015.2 hPa | - | - | - | - |
| 1777544410 | 17.22° C | 100% | 1015.2 hPa | - | - | - | - |
| 1777543508 | 20.56° C | 100% | 1015 hPa | - | - | - | - |
| 1777542608 | 17.78° C | 100% | 1014.9 hPa | - | - | - | - |
| 1777541707 | 16.67° C | 100% | 1014.7 hPa | - | - | - | - |
| 1777540806 | 16.11° C | 100% | 1014.6 hPa | - | - | - | - |
| 1777539905 | 17.22° C | 100% | 1014.4 hPa | - | - | - | - |
| 1777539004 | 16.11° C | 100% | 1014.2 hPa | - | - | - | - |
| 1777538104 | 15.56° C | 100% | 1014.3 hPa | - | - | - | - |
| 1777537203 | 17.78° C | 100% | 1014 hPa | - | - | - | - |
| 1777536302 | 17.22° C | 100% | 1013.8 hPa | - | - | - | - |
| 1777535402 | 15° C | 100% | 1013.8 hPa | - | - | - | - |
| 1777534502 | 14.44° C | 100% | 1013.8 hPa | - | - | - | - |
| 1777533601 | 13.89° C | 100% | 1013.5 hPa | - | - | - | - |
* Rain since midnight (hover to see other rain measurements)
** Current wind speed in m/s (hover to see current wind gust speed)